Content
SEND FEEDBACK

Daily
Averages
Monthly
Summary
United States of America

CAMPBELL, MISSOURI


Home > North America > United States > Missouri
Elevation: 310 feet     Latitude: 36 29N     Longitude: 090 04W

WEATHER
 
SELECT A DAY
Number of Records: 210,142;   Date Range: 1/1/95 - 9/29/14
 
SHARE

PRINT THIS DATA

[ ← Previous Day ]
WEATHER ALMANAC - FEBRUARY 3, 2014
[ Next Day → ]
[ °C ]   °F
Weather ElementAverageHighLow
Temperature21.9 °F28.9 °F (2:53 pm)12.9 °F (6:53 am)
Dewpoint10.6 °F17.1 °F (11:53 pm)5 °F (6:53 am)
Humidity62.7 %74 % (3:53 am)44 % (11:53 am)
Barometer30.33 in30.41 in (9:53 am)30.29 in (1:53 am)
Wind Speed6.6 mph11.5 mph (1:53 am)
Weather ElementAverage
Visibility10 mi
Wind DirectionSSE (144.3 °)

Weather ElementTotal
Precipitation---
Heating Degree Days44.1 (Base 65)
Averaged from 23 records on February 3, 2014
WEATHER CONDITIONS BREAKOUT
WIND DIRECTION BREAKOUT
WEATHER BY HOUR - FEBRUARY 3, 2014
[ °C ]   °F
Local TimeTemperatureDewpointHumidityBarometerVisibilityWind DirectionWind SpeedGust SpeedPrecipitationEventsConditions
1:53 AM21.9 °F12.9 °F68 %30.29 in10.0 miNNW (340°)11.5 mphClear
2:53 AM19.0 °F10.9 °F71 %30.29 in10.0 miNorth (350°)6.9 mphClear
3:53 AM16.0 °F9.0 °F74 %30.31 in10.0 miNorth (360°)8.1 mphClear
4:53 AM17.1 °F9.0 °F71 %30.33 in10.0 miNorth (350°)9.2 mphClear
5:53 AM14.0 °F7.0 °F74 %30.32 in9.0 miNorth (360°)9.2 mphClear
6:53 AM12.9 °F5.0 °F71 %30.35 in10.0 miNorth (360°)8.1 mphClear
7:53 AM14.0 °F5.0 °F67 %30.38 in10.0 miNNW (340°)3.5 mph0.00 inClear
8:53 AM18.0 °F6.1 °F60 %30.39 in10.0 miNorth (10°)9.2 mph0.00 inClear
9:53 AM21.0 °F7.0 °F55 %30.41 in10.0 miNE (50°)5.8 mphClear
10:53 AM23.0 °F6.1 °F48 %30.38 in10.0 miENE (60°)10.4 mphClear
11:53 AM26.1 °F7.0 °F44 %30.35 in10.0 miENE (60°)9.2 mphClear
12:53 PM27.0 °F10.0 °F49 %30.35 in10.0 miEast (80°)5.8 mphClear
1:53 PM28.0 °F10.9 °F49 %30.33 in10.0 miEast (80°)6.9 mphClear
2:53 PM28.9 °F12.0 °F49 %30.31 in10.0 miEast (80°)8.1 mphClear
3:53 PM28.9 °F12.9 °F51 %30.32 in10.0 miEast (80°)6.9 mphClear
4:53 PM27.0 °F12.0 °F53 %30.33 in10.0 miESE (110°)5.8 mphClear
5:53 PM24.1 °F12.9 °F62 %30.34 in10.0 miCalmClear
6:53 PM19.0 °F12.0 °F74 %30.34 in10.0 miCalmClear
7:53 PM23.0 °F14.0 °F68 %30.33 in10.0 miENE (70°)3.5 mphClear
8:53 PM21.9 °F14.0 °F72 %30.33 in10.0 miNE (50°)3.5 mphClear
9:53 PM21.9 °F14.0 °F72 %30.32 in10.0 miNE (40°)4.6 mphClear
10:53 PM25.0 °F16.0 °F69 %30.30 in10.0 miNE (50°)6.9 mphClear
11:53 PM25.0 °F17.1 °F72 %30.30 in10.0 miNE (40°)8.1 mphClear
Hourly data recorded from KPOF, located miles away from Campbell, Missouri







STORIES FROM OUR PARTNERS